Hourly Data Report for July 20, 2021

IQALUIT CLIMATE
NUNAVUT
Current Station Operator: ECCC - MSC

63°44'50.000" N
68°32'40.000" W
33.50 m
2402592
71321
XFB

Download Data

Hourly Data (July 2021)
Hourly Data Report for July 20, 2021
TIME
LST
Temp Definition
°C
Dew Point Definition
°C
Rel Hum Definition
%
Precip. Amount Definition
mm

Wind Dir Definition
10's deg

Wind Spd Definition
km/h
Visibility Definition
km
Stn Press Definition
kPa
Hmdx Definition


Wind Chill Definition


Weather Definition


00:00 6.5 3.1 79 0.0 19 12   100.19     LegendNANA
01:00 5.7 3.4 85 0.0 14 11   100.22     LegendNANA
02:00 5.3 3.2 86 0.0 17 14   100.28     LegendNANA
03:00 5.2 3.2 87 0.0 16 9   100.29     LegendNANA
04:00 5.3 3.3 86 0.0 17 12   100.31     LegendNANA
05:00 4.9 3.2 89 0.0 16 3   100.37     LegendNANA
06:00 4.9 3.4 90 0.0 13 6   100.41     LegendNANA
07:00 4.9 3.1 88 0.0 14 6   100.43     LegendNANA
08:00 5.6 3.7 87 0.0 15 4   100.44     LegendNANA
09:00 6.0 4.0 87 0.0 18 4   100.44     LegendNANA
10:00 5.9 3.7 86 0.0 15 9   100.44     LegendNANA
11:00 6.1 3.9 86 0.0 15 10   100.42     LegendNANA
12:00 5.5 3.9 89 0.2 14 10   100.41     LegendNANA
13:00 5.8 4.4 91 0.7 14 9   100.42     LegendNANA
14:00 6.1 4.5 90 0.2 16 9   100.40     LegendNANA
15:00 6.3 4.9 90 0.3 15 10   100.36     LegendNANA
16:00 6.3 4.5 88 0.0 15 15   100.35     LegendNANA
17:00 6.8 4.6 86 0.0 14 14   100.32     LegendNANA
18:00 7.0 4.4 84 0.0 14 14   100.32     LegendNANA
19:00 6.5 4.1 85 0.0 17 9   100.32     LegendNANA
20:00 6.2 4.2 87 0.0 11 4   100.34     LegendNANA
21:00 5.8 4.6 92 0.0 13 2   100.35     LegendNANA
22:00 6.2 5.4 95 0.3 28 5   100.36     LegendNANA
23:00 6.7 6.0 95 0.1 31 11   100.34     LegendNANA

Notes on Data Quality.

Legend

  • E = Estimated
  • M = Missing
  • NA = Not Available*
  • [empty] = Indicates an unobserved value
Date modified: